This is the latest recevied weather packets stored in our database for station/object N4WFF. If no packets are shown the sender has not sent any weather packets the latest 10 day(s).
| Time | Temp. | Humidity | Pressure | Rain* | Wind** | Luminosity | Snow |
|---|---|---|---|---|---|---|---|
| 1777712455 | 11.11° C | 97% | 1012.3 hPa | 1.52 mm | - | 0 W/m² | - |
| 1777712155 | 11.11° C | 97% | 1011.9 hPa | 0.76 mm | - | 0 W/m² | - |
| 1777711855 | 11.11° C | 97% | 1011.8 hPa | 1.78 mm | - | 0 W/m² | - |
| 1777711555 | 11.11° C | 97% | 1011.6 hPa | 2.79 mm | - | 0 W/m² | - |
| 1777711256 | 11.11° C | 97% | 1011.7 hPa | 4.57 mm | - | 0 W/m² | - |
| 1777710956 | 11.11° C | 97% | 1011.8 hPa | 5.33 mm | - | 0 W/m² | - |
| 1777710655 | 11.11° C | 97% | 1011.8 hPa | 12.7 mm | - | 0 W/m² | - |
| 1777710355 | 11.11° C | 97% | 1011.7 hPa | 14.73 mm | - | 0 W/m² | - |
| 1777710056 | 11.11° C | 97% | 1012.4 hPa | 10.67 mm | - | 0 W/m² | - |
| 1777709755 | 11.11° C | 97% | 1012.8 hPa | 6.1 mm | - | 0 W/m² | - |
| 1777709455 | 11.11° C | 97% | 1013 hPa | 8.89 mm | - | 0 W/m² | - |
| 1777709155 | 11.11° C | 97% | 1013.1 hPa | 8.13 mm | - | 0 W/m² | - |
| 1777708856 | 11.11° C | 97% | 1012.8 hPa | 2.54 mm | - | 0 W/m² | - |
| 1777708556 | 11.11° C | 97% | 1012.4 hPa | 1.27 mm | - | 0 W/m² | - |
| 1777708255 | 11.11° C | 97% | 1012.4 hPa | 0.25 mm | - | 0 W/m² | - |
| 1777707955 | 11.11° C | 97% | 1012.1 hPa | 0 mm | - | 0 W/m² | - |
| 1777707656 | 11.11° C | 97% | 1011.8 hPa | 0.25 mm | - | 0 W/m² | - |
| 1777707356 | 11.11° C | 97% | 1011.9 hPa | 0.76 mm | - | 0 W/m² | - |
| 1777707055 | 11.11° C | 97% | 1011.8 hPa | 2.54 mm | - | 0 W/m² | - |
| 1777706756 | 11.11° C | 97% | 1012 hPa | 2.54 mm | - | 0 W/m² | - |
| 1777706456 | 11.11° C | 97% | 1012.1 hPa | 0 mm | - | 0 W/m² | - |
| 1777706155 | 11.11° C | 97% | 1012.1 hPa | 0 mm | - | 0 W/m² | - |
| 1777705855 | 11.11° C | 97% | 1011.9 hPa | 0 mm | - | 0 W/m² | - |
| 1777705555 | 11.67° C | 97% | 1011.7 hPa | 0 mm | - | 0 W/m² | - |
| 1777705256 | 11.67° C | 97% | 1011.9 hPa | 0 mm | - | 0 W/m² | - |
* Rain latest hour (hover to see other rain measurements)
** Current wind speed in m/s (hover to see current wind gust speed)